Bettles, AK

12:07 PM AKDT on April 23, 2018 (GMT -0800)
Bettles

Weather History for PABT - April, 2013

Change the Weather History Date:

Friday, April 26, 2013

  Actual Average Record
Temperature  
Mean Temperature 17 °F -  
Max Temperature 28 °F 38 °F 55 °F (2016)
Min Temperature 6 °F 20 °F -1 °F (1973)
Degree Days  
Heating Degree Days 48    
Moisture  
Dew Point 7 °F    
Average Humidity 59    
Maximum Humidity 76    
Minimum Humidity 24    
Precipitation  
Precipitation 0.00 in - - ()
Snow  
Snow 0.00 in - - ()
Snow Depth 21.00 in    
Sea Level Pressure  
Sea Level Pressure 29.77 in    
Wind  
Wind Speed 2 mph (ESE)    
Max Wind Speed 9 mph    
Max Gust Speed -    
Visibility 10 miles    
Events Snow    
Averages and records for this station are not official NWS values.
T = Trace of Precipitation, MM = Missing Value Source: NWS Daily Summary

Daily Weather History Graph

Daily Weather History Graph

Search for Another Location

Airport or City:

Astronomy

Apr. 26, 2013 Rise Set
Actual Time 5:33 AM AKDT 10:36 PM AKDT
Civil Twilight 4:13 AM AKDT 11:59 PM AKDT
Nautical Twilight Sun does not set Sun does not set
Astronomical Twilight Sun does not set Sun does not set
Moon No Moon Rise 5:39 AM AKDT (4/26)
Length of Visible Light 19h 46m
Length of Day
17h 03m
Full, 99% of the Moon is Illuminated
Apr 26
Full
May 2
Last Quarter
May 9
New
May 17
First Quarter
May 24
Full

Hourly Weather History & Observations

Time (AKDT) Temp. Windchill Dew Point Humidity Pressure Visibility Wind Dir Wind Speed Gust Speed Precip Events Conditions
12:53 AM 18.0 °F - 5.0 °F 57% 30.01 in 10.0 mi Calm Calm - N/A   Mostly Cloudy
1:53 AM 15.1 °F - 3.9 °F 61% 29.98 in 10.0 mi Calm Calm - N/A   Mostly Cloudy
2:53 AM 12.0 °F - 1.0 °F 61% 29.96 in 10.0 mi Calm Calm - N/A   Mostly Cloudy
3:53 AM 8.1 °F - 1.9 °F 76% 29.91 in 10.0 mi Calm Calm - N/A   Mostly Cloudy
4:53 AM 6.1 °F - -0.0 °F 76% 29.88 in 10.0 mi Calm Calm - N/A   Mostly Cloudy
5:53 AM 8.1 °F - 1.0 °F 73% 29.85 in 10.0 mi Calm Calm - N/A   Overcast
6:53 AM 9.0 °F - 1.9 °F 73% 29.83 in 10.0 mi Calm Calm - N/A   Overcast
7:53 AM 12.0 °F - 3.9 °F 70% 29.79 in 10.0 mi Calm Calm - N/A   Overcast
8:53 AM 16.0 °F - 5.0 °F 62% 29.77 in 10.0 mi Calm Calm - N/A   Overcast
9:53 AM 17.1 °F - 6.1 °F 62% 29.75 in 10.0 mi Calm Calm - N/A Snow Light Snow
10:53 AM 19.0 °F - 9.0 °F 65% 29.73 in 10.0 mi Calm Calm - N/A Snow Light Snow
11:53 AM 19.9 °F 12.1 °F 10.9 °F 68% 29.70 in 10.0 mi SE 5.8 mph - N/A   Mostly Cloudy
12:53 PM 21.0 °F 12.4 °F 12.0 °F 68% 29.69 in 10.0 mi SE 6.9 mph - N/A   Scattered Clouds
1:53 PM 21.9 °F 13.4 °F 12.0 °F 66% 29.68 in 10.0 mi SE 6.9 mph - N/A   Mostly Cloudy
2:53 PM 23.0 °F 15.8 °F 12.9 °F 65% 29.68 in 10.0 mi ESE 5.8 mph - N/A   Mostly Cloudy
3:53 PM 26.1 °F 21.9 °F 12.9 °F 58% 29.67 in 10.0 mi South 3.5 mph - N/A   Mostly Cloudy
4:53 PM 27.0 °F - 12.9 °F 56% 29.66 in 10.0 mi Calm Calm - N/A   Mostly Cloudy
5:53 PM 27.0 °F 20.5 °F 14.0 °F 58% 29.66 in 10.0 mi SSE 5.8 mph - N/A   Mostly Cloudy
6:53 PM 27.0 °F 20.5 °F 14.0 °F 58% 29.67 in 10.0 mi SSE 5.8 mph - N/A   Mostly Cloudy
7:53 PM 28.0 °F 22.8 °F 14.0 °F 56% 29.68 in 10.0 mi ESE 4.6 mph - N/A   Scattered Clouds
8:53 PM 28.0 °F 24.2 °F 14.0 °F 56% 29.69 in 10.0 mi East 3.5 mph - N/A   Scattered Clouds
9:53 PM 27.0 °F 18.7 °F 5.0 °F 39% 29.71 in 10.0 mi North 8.1 mph - N/A   Scattered Clouds
10:53 PM 25.0 °F 15.5 °F 5.0 °F 43% 29.74 in 10.0 mi North 9.2 mph - N/A   Scattered Clouds
11:53 PM 24.1 °F 16.0 °F 3.9 °F 42% 29.78 in 10.0 mi NNE 6.9 mph - N/A   Partly Cloudy